• In Österreich
  • Länderverzeichnis
  • Für 7 Tage
  • Wassertemperatur
  • Satellitenkarten
  • Wetterkarte
  • News
  • Widgets
  • user-avatar
    Anmelden

    Stündliche Wetter La Rioja

    Heute, 18 Juli, Mittwoch

    Zeit Temperatur Niederschläge Wind Luftdruck Luftfeuchtigkeit
    00:00 +13°C° 0 mm 2 m/S 713 mmHg 80%
    01:00 +13°C° 0 mm 2 m/S 713 mmHg 81%
    02:00 +13°C° 0 mm 2 m/S 713 mmHg 82%
    03:00 +13°C° 0 mm 2 m/S 713 mmHg 82%
    04:00 +13°C° 0 mm 2 m/S 712 mmHg 82%
    05:00 +13°C° 0 mm 2 m/S 712 mmHg 82%
    06:00 +13°C° 0,1 mm 2 m/S 713 mmHg 81%
    07:00 +12°C° 0,1 mm 3 m/S 713 mmHg 81%
    08:00 +12°C° 0,1 mm 3 m/S 713 mmHg 80%
    09:00 +13°C° 0,1 mm 3 m/S 713 mmHg 76%
    10:00 +14°C° 0,1 mm 3 m/S 713 mmHg 72%
    11:00 +14°C° 0,1 mm 4 m/S 713 mmHg 68%
    12:00 +14°C° 0 mm 4 m/S 713 mmHg 66%
    13:00 +15°C° 0 mm 4 m/S 712 mmHg 65%
    14:00 +15°C° 0 mm 4 m/S 712 mmHg 63%
    15:00 +14°C° 0 mm 4 m/S 712 mmHg 63%
    16:00 +14°C° 0 mm 4 m/S 712 mmHg 63%
    17:00 +14°C° 0 mm 4 m/S 712 mmHg 63%
    18:00 +13°C° 0 mm 4 m/S 712 mmHg 64%
    19:00 +12°C° 0 mm 4 m/S 713 mmHg 66%
    20:00 +12°C° 0 mm 4 m/S 714 mmHg 67%
    21:00 +11°C° 0 mm 4 m/S 714 mmHg 68%
    22:00 +11°C° 0 mm 4 m/S 714 mmHg 68%
    23:00 +10°C° 0 mm 5 m/S 714 mmHg 69%

    Morgen, 19 Juli, Donnerstag

    Zeit Temperatur Niederschläge Wind Luftdruck Luftfeuchtigkeit
    00:00 +9°C° 0 mm 5 m/S 714 mmHg 70%
    01:00 +10°C° 0 mm 4 m/S 715 mmHg 71%
    02:00 +10°C° 0 mm 4 m/S 715 mmHg 72%
    03:00 +8°C° 0 mm 4 m/S 714 mmHg 73%
    04:00 +8°C° 0 mm 4 m/S 714 mmHg 73%
    05:00 +8°C° 0 mm 4 m/S 714 mmHg 74%
    06:00 +8°C° 0 mm 4 m/S 714 mmHg 73%
    07:00 +8°C° 0 mm 4 m/S 715 mmHg 73%
    08:00 +7°C° 0 mm 4 m/S 715 mmHg 73%
    09:00 +8°C° 0 mm 4 m/S 715 mmHg 69%
    10:00 +9°C° 0 mm 5 m/S 715 mmHg 65%
    11:00 +10°C° 0 mm 5 m/S 715 mmHg 61%
    12:00 +12°C° 0 mm 5 m/S 715 mmHg 56%
    13:00 +13°C° 0 mm 6 m/S 714 mmHg 52%
    14:00 +14°C° 0 mm 6 m/S 714 mmHg 48%
    15:00 +13°C° 0 mm 6 m/S 714 mmHg 49%
    16:00 +13°C° 0 mm 6 m/S 714 mmHg 51%
    17:00 +11°C° 0 mm 6 m/S 714 mmHg 52%
    18:00 +10°C° 0 mm 7 m/S 715 mmHg 56%
    19:00 +9°C° 0 mm 7 m/S 716 mmHg 60%
    20:00 +8°C° 0 mm 7 m/S 718 mmHg 64%
    21:00 +8°C° 0 mm 7 m/S 718 mmHg 65%
    22:00 +8°C° 0 mm 6 m/S 718 mmHg 65%
    23:00 +8°C° 0 mm 6 m/S 719 mmHg 66%

    übermorgen, 20 Juli, Freitag

    Zeit Temperatur Niederschläge Wind Luftdruck Luftfeuchtigkeit
    00:00 +7°C° 0 mm 6 m/S 719 mmHg 67%
    01:00 +7°C° 0 mm 6 m/S 719 mmHg 67%
    02:00 +7°C° 0 mm 6 m/S 719 mmHg 68%
    03:00 +6°C° 0 mm 5 m/S 720 mmHg 69%
    04:00 +6°C° 0 mm 4 m/S 720 mmHg 71%
    05:00 +5°C° 0 mm 3 m/S 720 mmHg 72%
    06:00 +5°C° 0 mm 3 m/S 721 mmHg 71%
    07:00 +5°C° 0 mm 3 m/S 722 mmHg 70%
    08:00 +5°C° 0 mm 3 m/S 722 mmHg 69%
    09:00 +8°C° 0 mm 3 m/S 723 mmHg 61%
    10:00 +8°C° 0 mm 4 m/S 723 mmHg 53%
    11:00 +11°C° 0 mm 4 m/S 724 mmHg 45%
    12:00 +12°C° 0 mm 4 m/S 723 mmHg 43%
    13:00 +12°C° 0 mm 4 m/S 722 mmHg 40%
    14:00 +13°C° 0 mm 4 m/S 721 mmHg 38%
    15:00 +13°C° 0 mm 3 m/S 721 mmHg 39%
    16:00 +13°C° 0 mm 3 m/S 720 mmHg 39%
    17:00 +13°C° 0 mm 2 m/S 720 mmHg 40%
    18:00 +12°C° 0 mm 2 m/S 720 mmHg 44%
    19:00 +10°C° 0 mm 2 m/S 720 mmHg 48%
    20:00 +10°C° 0 mm 1 m/S 721 mmHg 52%
    21:00 +10°C° 0 mm 1 m/S 721 mmHg 52%
    22:00 +9°C° 0 mm 1 m/S 720 mmHg 53%
    23:00 +9°C° 0 mm 1 m/S 720 mmHg 53%

    21 Juli, Samstag

    Zeit Temperatur Niederschläge Wind Luftdruck Luftfeuchtigkeit
    00:00 +8°C° 0 mm 2 m/S 720 mmHg 54%
    01:00 +7°C° 0 mm 2 m/S 719 mmHg 54%
    02:00 +7°C° 0 mm 2 m/S 719 mmHg 54%
    03:00 +7°C° 0 mm 2 m/S 718 mmHg 55%
    04:00 +6°C° 0 mm 2 m/S 718 mmHg 56%
    05:00 +6°C° 0 mm 2 m/S 717 mmHg 56%
    06:00 +7°C° 0 mm 2 m/S 717 mmHg 54%
    07:00 +7°C° 0 mm 2 m/S 717 mmHg 51%
    08:00 +7°C° 0 mm 2 m/S 717 mmHg 49%
    09:00 +10°C° 0 mm 2 m/S 717 mmHg 42%
    10:00 +12°C° 0 mm 3 m/S 716 mmHg 36%
    11:00 +14°C° 0 mm 3 m/S 716 mmHg 30%
    12:00 +16°C° 0 mm 3 m/S 715 mmHg 28%
    13:00 +17°C° 0 mm 3 m/S 713 mmHg 26%
    14:00 +18°C° 0 mm 3 m/S 712 mmHg 24%
    15:00 +18°C° 0 mm 3 m/S 711 mmHg 25%
    16:00 +18°C° 0 mm 2 m/S 711 mmHg 25%
    17:00 +18°C° 0 mm 2 m/S 710 mmHg 26%
    18:00 +17°C° 0 mm 2 m/S 710 mmHg 29%
    19:00 +15°C° 0 mm 2 m/S 710 mmHg 32%
    20:00 +14°C° 0 mm 2 m/S 710 mmHg 36%
    21:00 +13°C° 0 mm 2 m/S 710 mmHg 37%
    22:00 +13°C° 0 mm 2 m/S 710 mmHg 39%
    23:00 +12°C° 0 mm 2 m/S 710 mmHg 41%

    22 Juli, Sonntag

    Zeit Temperatur Niederschläge Wind Luftdruck Luftfeuchtigkeit
    00:00 +12°C° 0 mm 2 m/S 710 mmHg 42%
    01:00 +12°C° 0 mm 2 m/S 710 mmHg 44%
    02:00 +10°C° 0 mm 2 m/S 710 mmHg 46%
    03:00 +10°C° 0 mm 2 m/S 710 mmHg 47%
    04:00 +10°C° 0 mm 2 m/S 710 mmHg 47%
    05:00 +9°C° 0 mm 2 m/S 710 mmHg 48%
    06:00 +9°C° 0 mm 2 m/S 711 mmHg 48%
    07:00 +10°C° 0 mm 2 m/S 711 mmHg 48%
    08:00 +10°C° 0 mm 2 m/S 712 mmHg 49%
    09:00 +12°C° 0 mm 3 m/S 713 mmHg 44%
    10:00 +14°C° 0 mm 3 m/S 713 mmHg 40%
    11:00 +17°C° 0 mm 3 m/S 714 mmHg 35%
    12:00 +18°C° 0 mm 4 m/S 714 mmHg 33%
    13:00 +19°C° 0 mm 4 m/S 714 mmHg 31%
    14:00 +19°C° 0 mm 4 m/S 713 mmHg 28%
    15:00 +19°C° 0 mm 4 m/S 713 mmHg 29%
    16:00 +19°C° 0 mm 4 m/S 714 mmHg 29%
    17:00 +18°C° 0 mm 3 m/S 714 mmHg 30%
    18:00 +16°C° 0 mm 3 m/S 714 mmHg 36%
    19:00 +15°C° 0 mm 2 m/S 715 mmHg 42%
    20:00 +13°C° 0 mm 2 m/S 716 mmHg 48%
    21:00 +12°C° 0 mm 2 m/S 717 mmHg 49%
    22:00 +12°C° 0 mm 2 m/S 717 mmHg 51%
    23:00 +10°C° 0 mm 2 m/S 718 mmHg 53%

    23 Juli, Montag

    Zeit Temperatur Niederschläge Wind Luftdruck Luftfeuchtigkeit
    00:00 +10°C° 0 mm 2 m/S 718 mmHg 55%
    01:00 +9°C° 0 mm 3 m/S 719 mmHg 56%
    02:00 +8°C° 0 mm 3 m/S 719 mmHg 57%
    03:00 +8°C° 0 mm 3 m/S 719 mmHg 56%
    04:00 +7°C° 0 mm 3 m/S 720 mmHg 55%
    05:00 +6°C° 0 mm 4 m/S 720 mmHg 54%
    06:00 +5°C° 0 mm 4 m/S 721 mmHg 54%
    07:00 +5°C° 0 mm 4 m/S 722 mmHg 53%
    08:00 +5°C° 0 mm 4 m/S 723 mmHg 52%
    09:00 +7°C° 0 mm 4 m/S 724 mmHg 47%
    10:00 +8°C° 0 mm 4 m/S 724 mmHg 42%
    11:00 +11°C° 0 mm 4 m/S 724 mmHg 36%
    12:00 +11°C° 0 mm 4 m/S 724 mmHg 34%
    13:00 +12°C° 0 mm 4 m/S 723 mmHg 33%
    14:00 +13°C° 0 mm 4 m/S 722 mmHg 31%
    15:00 +12°C° 0 mm 3 m/S 722 mmHg 31%
    16:00 +12°C° 0 mm 3 m/S 722 mmHg 31%
    17:00 +13°C° 0 mm 2 m/S 722 mmHg 32%
    18:00 +12°C° 0 mm 2 m/S 723 mmHg 35%
    19:00 +9°C° 0 mm 2 m/S 724 mmHg 38%
    20:00 +9°C° 0 mm 1 m/S 724 mmHg 41%
    21:00 +8°C° 0 mm 2 m/S 724 mmHg 42%
    22:00 +7°C° 0 mm 2 m/S 724 mmHg 44%
    23:00 +7°C° 0 mm 2 m/S 725 mmHg 45%
    Mehr zeigen